{"data":{"norad_id":59364,"epoch":"2026-05-25T02:57:01.966752Z","epoch_age_seconds":60460,"freshness":"FRESH","line1":"1 59364U 24060S   26145.12293943 -.00000147  00000+0  41669-5 0  9993","line2":"2 59364  43.0000 176.8391 0001282 277.6613  82.4093 15.27573112121886","mean_motion":15.27573112,"eccentricity":0.0001282,"inclination_deg":43,"raan_deg":176.8391,"arg_perigee_deg":277.6613,"mean_anomaly_deg":82.4093,"bstar":4.1669e-6,"rev_number":12188,"period_min":94.267173773087,"perigee_km":482.19011456543,"apogee_km":483.94932796877,"semimajor_km":6861.2067212671,"source":"CELESTRAK","updated_at":"2026-05-25T13:38:18.911652Z"}}